Flag for Hungary Weather past 2 weeks in Debrecen, Hungary

Now
41 °F

Mostly cloudy.


Feels Like: 34 °F
Forecast: 41 / 48 °F
Wind: 12 mph from Southwest

Location: Debrecen Airport

Current Time: Dec 18, 2014 at 12:54:01 PM

Latest Report: Dec 18, 2014 at 12:15 PM


Visibility: 4 mi

Pressure: 30.04 "Hg

Humidity: 87%

Dew point: 37 °F

Location of DebrecenLocation

Historic Weather in Debrecen — Graph

°F

Debrecen temperature yesterday

Maximum temperature yesterday: 45 °F (at 8:45 AM)
Minimum temperature yesterday: 41 °F (at 4:45 PM)
Average temperature yesterday: 43 °F

Past Weeks' High & Low Weather Summary

 TemperatureHumidityPressure
High52 °F (Dec 5, 2:15 PM)100% (Dec 4, 6:15 AM)30.21 "Hg (Dec 4, 6:15 AM)
Low27 °F (Dec 13, 5:45 AM)58% (Dec 16, 11:45 AM)29.83 "Hg (Dec 17, 5:15 AM)
Average41 °F85%30.09 "Hg
* Reported Dec 3 11:15 AM — Dec 18 11:15 AM, Debrecen, Weather by CustomWeather, © 2014

Note: Actual official high and low records may vary slightly from our data, if they occured in-between our weather recording intervals... More about our weather records

Advertising

Debrecen weather history for previous 24 hours

 ConditionsComfort  
Time TempWeatherWind HumidityBarometerVisibility
11:15 AM
Dec 18
39 °FMostly cloudy.9 mph93%30.04 "Hg4 mi
10:45 AM39 °FPartly sunny.10 mph93%30.04 "Hg4 mi
10:15 AM37 °FPartly sunny.9 mph100%30.04 "Hg4 mi
9:45 AM37 °FPartly sunny.9 mph100%30.04 "Hg4 mi
9:15 AM36 °FFog.7 mph100%30.04 "Hg3 mi
8:45 AM36 °FFog.7 mph100%30.04 "Hg2 mi
8:15 AM36 °FFog.7 mph100%30.04 "Hg1 mi
7:45 AM34 °FFog.5 mph100%30.01 "Hg1 mi
7:15 AM34 °FFog.6 mph100%30.01 "Hg1 mi
6:45 AM34 °FFog.5 mph100%30.01 "Hg0 mi
6:15 AM34 °FDrizzle. Overcast.6 mph100%30.01 "Hg0 mi
5:45 AM34 °FDrizzle. Overcast.3 mph100%29.98 "Hg0 mi
5:15 AM34 °FFog.3 mph100%29.98 "Hg0 mi
4:45 PM
Dec 17
41 °FPassing clouds.2 mph93%29.92 "Hg5 mi
4:15 PM43 °FPassing clouds.2 mph87%29.92 "Hg4 mi
3:45 PM43 °FMostly cloudy.2 mph93%29.89 "Hg4 mi
3:15 PM43 °FMore clouds than sun.1 mph93%29.89 "Hg4 mi
2:45 PM43 °FMore clouds than sun.3 mph93%29.89 "Hg4 mi
2:15 PM43 °FBroken clouds.2 mph93%29.89 "Hg4 mi
1:45 PM43 °FFog.5 mph93%29.89 "Hg2 mi
1:15 PM43 °FFog.7 mph93%29.89 "Hg1 mi
12:45 PM43 °FDrizzle. Low clouds.8 mph100%29.89 "Hg1 mi
12:15 PM43 °FDrizzle. Low clouds.8 mph100%29.86 "Hg1 mi
Weather by CustomWeather, © 2014

See weather overviewHow to use our weather pages